Weather in Serravalle

San Marino     43°58′13″N   12°28′52″E
temp.,
°C
wind,
m/s
gust,
m/s
humid.,
%
clouds,
%
prec.,
mm/h
press.,
hPa
HPBL,
m
3 march, wed
wed301:00+7wsw22610 0.0 103332
04:00+6wsw22610 0.0 103233
07:00+6sw22590 0.0 103332
10:00+11nw11450 0.0 1032298
13:00+13nne21410 0.0 1032563
16:00+12e22490 0.0 1030269
19:00+9se12620 0.0 103040
22:00+9ssw12630 0.0 102923
4 march, thu
thu401:00+8sw22570 0.0 102823
04:00+7sw22540 0.0 102725
07:00+7sw22560 0.0 102628
10:00+12sse114640 0.0 1025332
13:00+14ne224343 0.0 1023550
16:00+13e235310 0.0 1021304
19:00+10sw236817 0.0 102080
22:00+9sw33722 0.0 102053
5 march, fri
fri501:00+7sw33785 0.0 101964
04:00+7ssw238061 0.0 1017107
07:00+7sw228061 0.0 101744
10:00+12sw246267 0.0 1017821
13:00+13se125683 0.0 1016928
16:00+13ene1164100 0.1 1015335
19:00+10wsw017597 0.4 101624
22:00+10sw227666 0.1 101836
6 march, sat
sat601:00+9wsw227480 0.1 101926
04:00+8ne468396 0.6 1020299
07:00+7e588998 1.9 1022551
10:00+7ene5886100 1.4 1025651
13:00+6ene4686100 2.1 1026522
16:00+6ne2483100 0.1 1026481
19:00+5ene126979 0.1 1027187
22:00+4nne13700 0.0 1028145
7 march, sun
sun701:00+3ne12740 0.0 1028125
04:00+3se01720 0.0 1027107
07:00+3sw117016 0.0 1026107
10:00+7ne12570 0.0 1026689
13:00+8ene32570 0.0 1024780
16:00+8ene33620 0.0 1022492
19:00+5se22690 0.0 1021117
22:00+4s12720 0.0 102167